owner,sensor,date,latitude,longitude,vertical_datum,wind_speed,wind_to_direction,wind_speed_of_gust,qcFlag 
TCOON,ioos:station:TCOON:057:1,2019-01-01T00:00:00Z,28.4460,-96.3961,0.0,0.5,147.0,0.8,'11111222,11111222,11111222' 
TCOON,ioos:station:TCOON:057:1,2019-01-01T00:06:00Z,28.4460,-96.3961,0.0,1.8,152.0,2.0,'11111222,11111222,11111222' 
TCOON,ioos:station:TCOON:057:1,2019-01-01T00:12:00Z,28.4460,-96.3961,0.0,1.2,166.0,2.1,'11111222,11111222,11111222' 
TCOON,ioos:station:TCOON:057:1,2019-01-01T00:18:00Z,28.4460,-96.3961,0.0,1.4,180.0,1.6,'11111222,11111222,11111222' 
TCOON,ioos:station:TCOON:057:1,2019-01-01T00:24:00Z,28.4460,-96.3961,0.0,1.6,148.0,1.8,'11111222,11111222,11111222' 
TCOON,ioos:station:TCOON:057:1,2019-01-01T00:30:00Z,28.4460,-96.3961,0.0,1.2,135.0,1.5,'11111222,11111222,11111222' 
TCOON,ioos:station:TCOON:057:1,2019-01-01T00:36:00Z,28.4460,-96.3961,0.0,1.2,144.0,1.5,'11111222,11111222,11111222' 
TCOON,ioos:station:TCOON:057:1,2019-01-01T00:42:00Z,28.4460,-96.3961,0.0,1.0,124.0,1.5,'11111222,11111222,11111222' 
TCOON,ioos:station:TCOON:057:1,2019-01-01T00:48:00Z,28.4460,-96.3961,0.0,1.0,153.0,1.3,'11111222,11111222,11111222' 
TCOON,ioos:station:TCOON:057:1,2019-01-01T00:54:00Z,28.4460,-96.3961,0.0,0.7,151.0,1.4,'11111222,11111222,11111222' 
TCOON,ioos:station:TCOON:057:1,2019-01-01T01:00:00Z,28.4460,-96.3961,0.0,1.0,204.0,1.1,'11111222,11111222,11111222' 
TCOON,ioos:station:TCOON:057:1,2019-01-01T01:06:00Z,28.4460,-96.3961,0.0,0.7,219.0,1.1,'11111222,11111222,11111222' 
TCOON,ioos:station:TCOON:057:1,2019-01-01T01:12:00Z,28.4460,-96.3961,0.0,1.2,196.0,1.3,'11111222,11111222,11111222' 
TCOON,ioos:station:TCOON:057:1,2019-01-01T01:18:00Z,28.4460,-96.3961,0.0,0.8,182.0,1.3,'11111222,11111222,11111222' 
TCOON,ioos:station:TCOON:057:1,2019-01-01T01:24:00Z,28.4460,-96.3961,0.0,0.8,200.0,1.0,'11111222,11111222,11111222' 
TCOON,ioos:station:TCOON:057:1,2019-01-01T01:30:00Z,28.4460,-96.3961,0.0,0.9,188.0,1.0,'11111222,11111222,11111222' 
TCOON,ioos:station:TCOON:057:1,2019-01-01T01:36:00Z,28.4460,-96.3961,0.0,0.8,184.0,1.0,'11111222,11111222,11111222' 
TCOON,ioos:station:TCOON:057:1,2019-01-01T01:42:00Z,28.4460,-96.3961,0.0,0.9,211.0,1.1,'11111222,11111222,11111222' 
TCOON,ioos:station:TCOON:057:1,2019-01-01T01:48:00Z,28.4460,-96.3961,0.0,1.6,218.0,1.7,'11111222,11111222,11111222' 
TCOON,ioos:station:TCOON:057:1,2019-01-01T01:54:00Z,28.4460,-96.3961,0.0,0.9,203.0,1.5,'11111222,11111222,11111222' 
TCOON,ioos:station:TCOON:057:1,2019-01-01T02:00:00Z,28.4460,-96.3961,0.0,0.5,176.0,1.1,'11111222,11111222,11111222' 
TCOON,ioos:station:TCOON:057:1,2019-01-01T02:06:00Z,28.4460,-96.3961,0.0,1.9,179.0,2.0,'11111222,11111222,11111222' 
TCOON,ioos:station:TCOON:057:1,2019-01-01T02:12:00Z,28.4460,-96.3961,0.0,1.9,163.0,2.2,'11111222,11111222,11111222' 
TCOON,ioos:station:TCOON:057:1,2019-01-01T02:18:00Z,28.4460,-96.3961,0.0,1.8,162.0,2.3,'11111222,11111222,11111222' 
TCOON,ioos:station:TCOON:057:1,2019-01-01T02:24:00Z,28.4460,-96.3961,0.0,1.4,175.0,1.9,'11111222,11111222,11111222' 
TCOON,ioos:station:TCOON:057:1,2019-01-01T02:30:00Z,28.4460,-96.3961,0.0,0.7,185.0,1.5,'11111222,11111222,11111222' 
TCOON,ioos:station:TCOON:057:1,2019-01-01T02:36:00Z,28.4460,-96.3961,0.0,1.2,192.0,1.3,'11111222,11111222,11111222' 
TCOON,ioos:station:TCOON:057:1,2019-01-01T02:42:00Z,28.4460,-96.3961,0.0,1.8,183.0,1.9,'11111222,11111222,11111222' 
TCOON,ioos:station:TCOON:057:1,2019-01-01T02:48:00Z,28.4460,-96.3961,0.0,1.9,187.0,2.1,'11111222,11111222,11111222' 
TCOON,ioos:station:TCOON:057:1,2019-01-01T02:54:00Z,28.4460,-96.3961,0.0,1.7,191.0,2.1,'11111222,11111222,11111222' 
TCOON,ioos:station:TCOON:057:1,2019-01-01T03:00:00Z,28.4460,-96.3961,0.0,1.7,192.0,1.9,'11111222,11111222,11111222' 
TCOON,ioos:station:TCOON:057:1,2019-01-01T03:06:00Z,28.4460,-96.3961,0.0,1.5,197.0,1.6,'11111222,11111222,11111222' 
TCOON,ioos:station:TCOON:057:1,2019-01-01T03:12:00Z,28.4460,-96.3961,0.0,1.3,227.0,1.4,'11111222,11111222,11111222' 
TCOON,ioos:station:TCOON:057:1,2019-01-01T03:18:00Z,28.4460,-96.3961,0.0,1.2,213.0,1.6,'11111222,11111222,11111222' 
TCOON,ioos:station:TCOON:057:1,2019-01-01T03:24:00Z,28.4460,-96.3961,0.0,1.4,194.0,1.7,'11111222,11111222,11111222' 
TCOON,ioos:station:TCOON:057:1,2019-01-01T03:30:00Z,28.4460,-96.3961,0.0,1.7,198.0,1.9,'11111222,11111222,11111222' 
TCOON,ioos:station:TCOON:057:1,2019-01-01T03:36:00Z,28.4460,-96.3961,0.0,1.9,184.0,2.1,'11111222,11111222,11111222' 
TCOON,ioos:station:TCOON:057:1,2019-01-01T03:42:00Z,28.4460,-96.3961,0.0,1.9,186.0,2.0,'11111222,11111222,11111222' 
TCOON,ioos:station:TCOON:057:1,2019-01-01T03:48:00Z,28.4460,-96.3961,0.0,1.5,218.0,2.0,'11111222,11111222,11111222' 
TCOON,ioos:station:TCOON:057:1,2019-01-01T03:54:00Z,28.4460,-96.3961,0.0,1.4,206.0,1.6,'11111222,11111222,11111222' 
TCOON,ioos:station:TCOON:057:1,2019-01-01T04:00:00Z,28.4460,-96.3961,0.0,1.7,186.0,1.9,'11111222,11111222,11111222' 
TCOON,ioos:station:TCOON:057:1,2019-01-01T04:06:00Z,28.4460,-96.3961,0.0,1.4,183.0,1.9,'11111222,11111222,11111222' 
TCOON,ioos:station:TCOON:057:1,2019-01-01T04:12:00Z,28.4460,-96.3961,0.0,1.4,188.0,1.5,'11111222,11111222,11111222' 
TCOON,ioos:station:TCOON:057:1,2019-01-01T04:18:00Z,28.4460,-96.3961,0.0,1.8,184.0,2.0,'11111222,11111222,11111222' 
TCOON,ioos:station:TCOON:057:1,2019-01-01T04:24:00Z,28.4460,-96.3961,0.0,1.5,178.0,2.1,'11111222,11111222,11111222' 
TCOON,ioos:station:TCOON:057:1,2019-01-01T04:30:00Z,28.4460,-96.3961,0.0,1.1,182.0,1.4,'11111222,11111222,11111222' 
TCOON,ioos:station:TCOON:057:1,2019-01-01T04:36:00Z,28.4460,-96.3961,0.0,0.9,144.0,1.5,'11111222,11111222,11111222' 
TCOON,ioos:station:TCOON:057:1,2019-01-01T04:42:00Z,28.4460,-96.3961,0.0,0.8,152.0,0.9,'11111222,11111222,11111222' 
TCOON,ioos:station:TCOON:057:1,2019-01-01T04:48:00Z,28.4460,-96.3961,0.0,0.9,174.0,1.0,'11111222,11111222,11111222' 
TCOON,ioos:station:TCOON:057:1,2019-01-01T04:54:00Z,28.4460,-96.3961,0.0,0.6,166.0,0.8,'11111222,11111222,11111222' 
TCOON,ioos:station:TCOON:057:1,2019-01-01T05:00:00Z,28.4460,-96.3961,0.0,0.2,164.0,0.5,'11111222,11111222,11111222' 
TCOON,ioos:station:TCOON:057:1,2019-01-01T05:06:00Z,28.4460,-96.3961,0.0,1.1,164.0,1.2,'11111222,11111222,11111222' 
TCOON,ioos:station:TCOON:057:1,2019-01-01T05:12:00Z,28.4460,-96.3961,0.0,1.4,154.0,1.8,'11111222,11111222,11111222' 
TCOON,ioos:station:TCOON:057:1,2019-01-01T05:18:00Z,28.4460,-96.3961,0.0,1.7,144.0,1.8,'11111222,11111222,11111222' 
TCOON,ioos:station:TCOON:057:1,2019-01-01T05:24:00Z,28.4460,-96.3961,0.0,1.5,150.0,1.8,'11111222,11111222,11111222' 
TCOON,ioos:station:TCOON:057:1,2019-01-01T05:30:00Z,28.4460,-96.3961,0.0,1.9,150.0,2.0,'11111222,11111222,11111222' 
TCOON,ioos:station:TCOON:057:1,2019-01-01T05:36:00Z,28.4460,-96.3961,0.0,1.8,156.0,2.1,'11111222,11111222,11111222' 
TCOON,ioos:station:TCOON:057:1,2019-01-01T05:42:00Z,28.4460,-96.3961,0.0,2.2,159.0,2.4,'11111222,11111222,11111222' 
TCOON,ioos:station:TCOON:057:1,2019-01-01T05:48:00Z,28.4460,-96.3961,0.0,1.3,161.0,2.2,'11111222,11111222,11111222' 
TCOON,ioos:station:TCOON:057:1,2019-01-01T05:54:00Z,28.4460,-96.3961,0.0,0.6,175.0,1.3,'11111222,11111222,11111222' 
TCOON,ioos:station:TCOON:057:1,2019-01-01T06:00:00Z,28.4460,-96.3961,0.0,1.2,304.0,1.4,'11111222,11111222,11111222' 
TCOON,ioos:station:TCOON:057:1,2019-01-01T06:06:00Z,28.4460,-96.3961,0.0,0.7,316.0,1.5,'11111222,11111222,11111222' 
TCOON,ioos:station:TCOON:057:1,2019-01-01T06:12:00Z,28.4460,-96.3961,0.0,0.7,299.0,1.1,'11111222,11111222,11111222' 
TCOON,ioos:station:TCOON:057:1,2019-01-01T06:18:00Z,28.4460,-96.3961,0.0,0.4,347.0,1.2,'11111222,11111222,11111222' 
TCOON,ioos:station:TCOON:057:1,2019-01-01T06:24:00Z,28.4460,-96.3961,0.0,0.0,358.0,0.2,'11111222,11111222,11111222' 
TCOON,ioos:station:TCOON:057:1,2019-01-01T06:30:00Z,28.4460,-96.3961,0.0,0.8,289.0,0.9,'11111222,11111222,11111222' 
TCOON,ioos:station:TCOON:057:1,2019-01-01T06:36:00Z,28.4460,-96.3961,0.0,0.2,311.0,0.7,'11111222,11111222,11111222' 
TCOON,ioos:station:TCOON:057:1,2019-01-01T06:42:00Z,28.4460,-96.3961,0.0,0.5,307.0,0.5,'11111222,11111222,11111222' 
TCOON,ioos:station:TCOON:057:1,2019-01-01T06:48:00Z,28.4460,-96.3961,0.0,0.0,302.0,0.5,'11111222,11111222,11111222' 
TCOON,ioos:station:TCOON:057:1,2019-01-01T06:54:00Z,28.4460,-96.3961,0.0,0.3,315.0,0.3,'11111222,11111222,11111222' 
TCOON,ioos:station:TCOON:057:1,2019-01-01T07:00:00Z,28.4460,-96.3961,0.0,1.3,330.0,1.4,'11111222,11111222,11111222' 
TCOON,ioos:station:TCOON:057:1,2019-01-01T07:06:00Z,28.4460,-96.3961,0.0,1.4,345.0,1.5,'11111222,11111222,11111222' 
TCOON,ioos:station:TCOON:057:1,2019-01-01T07:12:00Z,28.4460,-96.3961,0.0,1.8,323.0,1.9,'11111222,11111222,11111222' 
TCOON,ioos:station:TCOON:057:1,2019-01-01T07:18:00Z,28.4460,-96.3961,0.0,2.2,347.0,2.4,'11111222,11111222,11111222' 
TCOON,ioos:station:TCOON:057:1,2019-01-01T07:24:00Z,28.4460,-96.3961,0.0,2.2,335.0,2.5,'11111222,11111222,11111222' 
TCOON,ioos:station:TCOON:057:1,2019-01-01T07:30:00Z,28.4460,-96.3961,0.0,2.2,333.0,2.4,'11111222,11111222,11111222' 
TCOON,ioos:station:TCOON:057:1,2019-01-01T07:36:00Z,28.4460,-96.3961,0.0,2.8,338.0,3.0,'11111222,11111222,11111222' 
TCOON,ioos:station:TCOON:057:1,2019-01-01T07:42:00Z,28.4460,-96.3961,0.0,2.6,338.0,2.8,'11111222,11111222,11111222' 
TCOON,ioos:station:TCOON:057:1,2019-01-01T07:48:00Z,28.4460,-96.3961,0.0,2.4,338.0,2.8,'11111222,11111222,11111222' 
TCOON,ioos:station:TCOON:057:1,2019-01-01T07:54:00Z,28.4460,-96.3961,0.0,2.7,344.0,3.0,'11111222,11111222,11111222' 
TCOON,ioos:station:TCOON:057:1,2019-01-01T08:00:00Z,28.4460,-96.3961,0.0,2.9,346.0,3.2,'11111222,11111222,11111222' 
TCOON,ioos:station:TCOON:057:1,2019-01-01T08:06:00Z,28.4460,-96.3961,0.0,3.2,350.0,3.6,'11111222,11111222,11111222' 
TCOON,ioos:station:TCOON:057:1,2019-01-01T08:12:00Z,28.4460,-96.3961,0.0,2.9,351.0,3.2,'11111222,11111222,11111222' 
TCOON,ioos:station:TCOON:057:1,2019-01-01T08:18:00Z,28.4460,-96.3961,0.0,3.3,353.0,3.5,'11111222,11111222,11111222' 
TCOON,ioos:station:TCOON:057:1,2019-01-01T08:24:00Z,28.4460,-96.3961,0.0,3.2,8.0,3.5,'11111222,11111222,11111222' 
TCOON,ioos:station:TCOON:057:1,2019-01-01T08:30:00Z,28.4460,-96.3961,0.0,3.2,13.0,3.7,'11111222,11111222,11111222' 
TCOON,ioos:station:TCOON:057:1,2019-01-01T08:36:00Z,28.4460,-96.3961,0.0,2.9,14.0,3.1,'11111222,11111222,11111222' 
TCOON,ioos:station:TCOON:057:1,2019-01-01T08:42:00Z,28.4460,-96.3961,0.0,3.2,11.0,3.4,'11111222,11111222,11111222' 
TCOON,ioos:station:TCOON:057:1,2019-01-01T08:48:00Z,28.4460,-96.3961,0.0,2.9,10.0,3.4,'11111222,11111222,11111222' 
TCOON,ioos:station:TCOON:057:1,2019-01-01T08:54:00Z,28.4460,-96.3961,0.0,3.5,11.0,3.8,'11111222,11111222,11111222' 
TCOON,ioos:station:TCOON:057:1,2019-01-01T09:00:00Z,28.4460,-96.3961,0.0,3.8,2.0,4.1,'11111222,11111222,11111222' 
TCOON,ioos:station:TCOON:057:1,2019-01-01T09:06:00Z,28.4460,-96.3961,0.0,3.4,7.0,3.8,'11111222,11111222,11111222' 
TCOON,ioos:station:TCOON:057:1,2019-01-01T09:12:00Z,28.4460,-96.3961,0.0,3.5,6.0,3.8,'11111222,11111222,11111222' 
TCOON,ioos:station:TCOON:057:1,2019-01-01T09:18:00Z,28.4460,-96.3961,0.0,3.4,12.0,4.1,'11111222,11111222,11111222' 
TCOON,ioos:station:TCOON:057:1,2019-01-01T09:24:00Z,28.4460,-96.3961,0.0,3.4,14.0,3.8,'11111222,11111222,11111222' 
TCOON,ioos:station:TCOON:057:1,2019-01-01T09:30:00Z,28.4460,-96.3961,0.0,3.6,9.0,4.1,'11111222,11111222,11111222' 
TCOON,ioos:station:TCOON:057:1,2019-01-01T09:36:00Z,28.4460,-96.3961,0.0,3.9,16.0,4.3,'11111222,11111222,11111222' 
TCOON,ioos:station:TCOON:057:1,2019-01-01T09:42:00Z,28.4460,-96.3961,0.0,3.6,12.0,4.6,'11111222,11111222,11111222' 
TCOON,ioos:station:TCOON:057:1,2019-01-01T09:48:00Z,28.4460,-96.3961,0.0,3.3,20.0,3.8,'11111222,11111222,11111222' 
TCOON,ioos:station:TCOON:057:1,2019-01-01T09:54:00Z,28.4460,-96.3961,0.0,3.9,19.0,4.3,'11111222,11111222,11111222' 
TCOON,ioos:station:TCOON:057:1,2019-01-01T10:00:00Z,28.4460,-96.3961,0.0,4.1,8.0,4.4,'11111222,11111222,11111222' 
TCOON,ioos:station:TCOON:057:1,2019-01-01T10:06:00Z,28.4460,-96.3961,0.0,4.1,8.0,4.4,'11111222,11111222,11111222' 
TCOON,ioos:station:TCOON:057:1,2019-01-01T10:12:00Z,28.4460,-96.3961,0.0,4.6,17.0,4.9,'11111222,11111222,11111222' 
TCOON,ioos:station:TCOON:057:1,2019-01-01T10:18:00Z,28.4460,-96.3961,0.0,3.9,15.0,4.8,'11111222,11111222,11111222' 
TCOON,ioos:station:TCOON:057:1,2019-01-01T10:24:00Z,28.4460,-96.3961,0.0,3.7,23.0,4.0,'11111222,11111222,11111222' 
TCOON,ioos:station:TCOON:057:1,2019-01-01T10:30:00Z,28.4460,-96.3961,0.0,4.3,20.0,4.7,'11111222,11111222,11111222' 
TCOON,ioos:station:TCOON:057:1,2019-01-01T10:36:00Z,28.4460,-96.3961,0.0,3.9,12.0,4.4,'11111222,11111222,11111222' 
TCOON,ioos:station:TCOON:057:1,2019-01-01T10:42:00Z,28.4460,-96.3961,0.0,4.3,11.0,4.5,'11111222,11111222,11111222' 
TCOON,ioos:station:TCOON:057:1,2019-01-01T10:48:00Z,28.4460,-96.3961,0.0,4.3,7.0,4.6,'11111222,11111222,11111222' 
TCOON,ioos:station:TCOON:057:1,2019-01-01T10:54:00Z,28.4460,-96.3961,0.0,4.2,5.0,4.8,'11111222,11111222,11111222' 
TCOON,ioos:station:TCOON:057:1,2019-01-01T11:00:00Z,28.4460,-96.3961,0.0,3.7,4.0,4.5,'11111222,11111222,11111222' 
TCOON,ioos:station:TCOON:057:1,2019-01-01T11:06:00Z,28.4460,-96.3961,0.0,3.8,11.0,4.2,'11111222,11111222,11111222' 
TCOON,ioos:station:TCOON:057:1,2019-01-01T11:12:00Z,28.4460,-96.3961,0.0,3.6,7.0,4.0,'11111222,11111222,11111222' 
TCOON,ioos:station:TCOON:057:1,2019-01-01T11:18:00Z,28.4460,-96.3961,0.0,3.9,13.0,4.4,'11111222,11111222,11111222' 
TCOON,ioos:station:TCOON:057:1,2019-01-01T11:24:00Z,28.4460,-96.3961,0.0,4.0,20.0,4.7,'11111222,11111222,11111222' 
TCOON,ioos:station:TCOON:057:1,2019-01-01T11:30:00Z,28.4460,-96.3961,0.0,4.6,17.0,5.0,'11111222,11111222,11111222' 
TCOON,ioos:station:TCOON:057:1,2019-01-01T11:36:00Z,28.4460,-96.3961,0.0,4.3,15.0,5.0,'11111222,11111222,11111222' 
TCOON,ioos:station:TCOON:057:1,2019-01-01T11:42:00Z,28.4460,-96.3961,0.0,4.3,8.0,4.7,'11111222,11111222,11111222' 
TCOON,ioos:station:TCOON:057:1,2019-01-01T11:48:00Z,28.4460,-96.3961,0.0,4.7,7.0,5.2,'11111222,11111222,11111222' 
TCOON,ioos:station:TCOON:057:1,2019-01-01T11:54:00Z,28.4460,-96.3961,0.0,4.8,3.0,5.1,'11111222,11111222,11111222' 
TCOON,ioos:station:TCOON:057:1,2019-01-01T12:00:00Z,28.4460,-96.3961,0.0,4.8,3.0,5.3,'11111222,11111222,11111222' 
TCOON,ioos:station:TCOON:057:1,2019-01-01T12:06:00Z,28.4460,-96.3961,0.0,4.8,5.0,5.1,'11111222,11111222,11111222' 
TCOON,ioos:station:TCOON:057:1,2019-01-01T12:12:00Z,28.4460,-96.3961,0.0,4.3,11.0,5.2,'11111222,11111222,11111222' 
TCOON,ioos:station:TCOON:057:1,2019-01-01T12:18:00Z,28.4460,-96.3961,0.0,4.7,12.0,5.0,'11111222,11111222,11111222' 
TCOON,ioos:station:TCOON:057:1,2019-01-01T12:24:00Z,28.4460,-96.3961,0.0,4.9,7.0,5.3,'11111222,11111222,11111222' 
TCOON,ioos:station:TCOON:057:1,2019-01-01T12:30:00Z,28.4460,-96.3961,0.0,4.8,17.0,5.5,'11111222,11111222,11111222' 
TCOON,ioos:station:TCOON:057:1,2019-01-01T12:36:00Z,28.4460,-96.3961,0.0,4.4,19.0,5.5,'11111222,11111222,11111222' 
TCOON,ioos:station:TCOON:057:1,2019-01-01T12:42:00Z,28.4460,-96.3961,0.0,4.6,21.0,4.9,'11111222,11111222,11111222' 
TCOON,ioos:station:TCOON:057:1,2019-01-01T12:48:00Z,28.4460,-96.3961,0.0,4.6,22.0,5.2,'11111222,11111222,11111222' 
TCOON,ioos:station:TCOON:057:1,2019-01-01T12:54:00Z,28.4460,-96.3961,0.0,5.8,19.0,6.2,'11111222,11111222,11111222' 
TCOON,ioos:station:TCOON:057:1,2019-01-01T13:00:00Z,28.4460,-96.3961,0.0,6.4,24.0,7.1,'11111222,11111222,11111222' 
TCOON,ioos:station:TCOON:057:1,2019-01-01T13:06:00Z,28.4460,-96.3961,0.0,6.0,15.0,6.9,'11111222,11111222,11111222' 
TCOON,ioos:station:TCOON:057:1,2019-01-01T13:12:00Z,28.4460,-96.3961,0.0,6.8,18.0,7.4,'11111222,11111222,11111222' 
TCOON,ioos:station:TCOON:057:1,2019-01-01T13:18:00Z,28.4460,-96.3961,0.0,6.7,21.0,7.9,'11111222,11111222,11111222' 
TCOON,ioos:station:TCOON:057:1,2019-01-01T13:24:00Z,28.4460,-96.3961,0.0,6.7,20.0,7.4,'11111222,11111222,11111222' 
TCOON,ioos:station:TCOON:057:1,2019-01-01T13:30:00Z,28.4460,-96.3961,0.0,7.1,22.0,7.8,'11111222,11111222,11111222' 
TCOON,ioos:station:TCOON:057:1,2019-01-01T13:36:00Z,28.4460,-96.3961,0.0,7.0,20.0,7.7,'11111222,11111222,11111222' 
TCOON,ioos:station:TCOON:057:1,2019-01-01T13:42:00Z,28.4460,-96.3961,0.0,6.7,18.0,7.4,'11111222,11111222,11111222' 
TCOON,ioos:station:TCOON:057:1,2019-01-01T13:48:00Z,28.4460,-96.3961,0.0,5.8,19.0,7.1,'11111222,11111222,11111222' 
TCOON,ioos:station:TCOON:057:1,2019-01-01T13:54:00Z,28.4460,-96.3961,0.0,6.6,13.0,7.3,'11111222,11111222,11111222' 
TCOON,ioos:station:TCOON:057:1,2019-01-01T14:00:00Z,28.4460,-96.3961,0.0,6.1,10.0,7.1,'11111222,11111222,11111222' 
TCOON,ioos:station:TCOON:057:1,2019-01-01T14:06:00Z,28.4460,-96.3961,0.0,6.4,7.0,7.0,'11111222,11111222,11111222' 
TCOON,ioos:station:TCOON:057:1,2019-01-01T14:12:00Z,28.4460,-96.3961,0.0,5.9,7.0,7.0,'11111222,11111222,11111222' 
TCOON,ioos:station:TCOON:057:1,2019-01-01T14:18:00Z,28.4460,-96.3961,0.0,6.9,4.0,7.5,'11111222,11111222,11111222' 
TCOON,ioos:station:TCOON:057:1,2019-01-01T14:24:00Z,28.4460,-96.3961,0.0,6.7,1.0,7.5,'11111222,11111222,11111222' 
TCOON,ioos:station:TCOON:057:1,2019-01-01T14:30:00Z,28.4460,-96.3961,0.0,7.0,1.0,7.9,'11111222,11111222,11111222' 
TCOON,ioos:station:TCOON:057:1,2019-01-01T14:36:00Z,28.4460,-96.3961,0.0,8.1,355.0,8.9,'11111222,11111222,11111222' 
TCOON,ioos:station:TCOON:057:1,2019-01-01T14:42:00Z,28.4460,-96.3961,0.0,7.5,3.0,9.1,'11111222,11111222,11111222' 
TCOON,ioos:station:TCOON:057:1,2019-01-01T14:48:00Z,28.4460,-96.3961,0.0,7.1,5.0,9.4,'11111222,11111222,11111222' 
TCOON,ioos:station:TCOON:057:1,2019-01-01T14:54:00Z,28.4460,-96.3961,0.0,7.8,6.0,8.8,'11111222,11111222,11111222' 
TCOON,ioos:station:TCOON:057:1,2019-01-01T15:00:00Z,28.4460,-96.3961,0.0,7.6,9.0,8.2,'11111222,11111222,11111222' 
TCOON,ioos:station:TCOON:057:1,2019-01-01T15:06:00Z,28.4460,-96.3961,0.0,7.0,8.0,8.1,'11111222,11111222,11111222' 
TCOON,ioos:station:TCOON:057:1,2019-01-01T15:12:00Z,28.4460,-96.3961,0.0,7.9,9.0,8.5,'11111222,11111222,11111222' 
TCOON,ioos:station:TCOON:057:1,2019-01-01T15:18:00Z,28.4460,-96.3961,0.0,8.1,360.0,8.7,'11111222,11144222,11111222' 
TCOON,ioos:station:TCOON:057:1,2019-01-01T15:24:00Z,28.4460,-96.3961,0.0,7.4,1.0,8.6,'11111222,11111222,11111222' 
TCOON,ioos:station:TCOON:057:1,2019-01-01T15:30:00Z,28.4460,-96.3961,0.0,7.2,5.0,8.1,'11111222,11111222,11111222' 
TCOON,ioos:station:TCOON:057:1,2019-01-01T15:36:00Z,28.4460,-96.3961,0.0,7.2,6.0,7.9,'11111222,11111222,11111222' 
TCOON,ioos:station:TCOON:057:1,2019-01-01T15:42:00Z,28.4460,-96.3961,0.0,6.6,11.0,7.8,'11111222,11111222,11111222' 
TCOON,ioos:station:TCOON:057:1,2019-01-01T15:48:00Z,28.4460,-96.3961,0.0,5.2,15.0,7.1,'11111222,11111222,11111222' 
TCOON,ioos:station:TCOON:057:1,2019-01-01T15:54:00Z,28.4460,-96.3961,0.0,5.8,22.0,6.4,'11111222,11111222,11111222' 
TCOON,ioos:station:TCOON:057:1,2019-01-01T16:00:00Z,28.4460,-96.3961,0.0,6.1,23.0,6.8,'11111222,11111222,11111222' 
TCOON,ioos:station:TCOON:057:1,2019-01-01T16:06:00Z,28.4460,-96.3961,0.0,6.5,19.0,7.5,'11111222,11111222,11111222' 
TCOON,ioos:station:TCOON:057:1,2019-01-01T16:12:00Z,28.4460,-96.3961,0.0,6.9,19.0,7.9,'11111222,11111222,11111222' 
TCOON,ioos:station:TCOON:057:1,2019-01-01T16:18:00Z,28.4460,-96.3961,0.0,6.5,16.0,7.4,'11111222,11111222,11111222' 
TCOON,ioos:station:TCOON:057:1,2019-01-01T16:24:00Z,28.4460,-96.3961,0.0,7.1,13.0,7.7,'11111222,11111222,11111222' 
TCOON,ioos:station:TCOON:057:1,2019-01-01T16:30:00Z,28.4460,-96.3961,0.0,7.0,10.0,7.8,'11111222,11111222,11111222' 
TCOON,ioos:station:TCOON:057:1,2019-01-01T16:36:00Z,28.4460,-96.3961,0.0,5.9,17.0,7.2,'11111222,11111222,11111222' 
TCOON,ioos:station:TCOON:057:1,2019-01-01T16:42:00Z,28.4460,-96.3961,0.0,5.9,15.0,6.7,'11111222,11111222,11111222' 
TCOON,ioos:station:TCOON:057:1,2019-01-01T16:48:00Z,28.4460,-96.3961,0.0,6.6,10.0,7.2,'11111222,11111222,11111222' 
TCOON,ioos:station:TCOON:057:1,2019-01-01T16:54:00Z,28.4460,-96.3961,0.0,6.5,9.0,7.2,'11111222,11111222,11111222' 
TCOON,ioos:station:TCOON:057:1,2019-01-01T17:00:00Z,28.4460,-96.3961,0.0,6.0,19.0,6.9,'11111222,11111222,11111222' 
TCOON,ioos:station:TCOON:057:1,2019-01-01T17:06:00Z,28.4460,-96.3961,0.0,5.6,11.0,6.3,'11111222,11111222,11111222' 
TCOON,ioos:station:TCOON:057:1,2019-01-01T17:12:00Z,28.4460,-96.3961,0.0,6.2,9.0,7.3,'11111222,11111222,11111222' 
TCOON,ioos:station:TCOON:057:1,2019-01-01T17:18:00Z,28.4460,-96.3961,0.0,6.1,5.0,7.1,'11111222,11111222,11111222' 
TCOON,ioos:station:TCOON:057:1,2019-01-01T17:24:00Z,28.4460,-96.3961,0.0,6.4,10.0,7.3,'11111222,11111222,11111222' 
TCOON,ioos:station:TCOON:057:1,2019-01-01T17:30:00Z,28.4460,-96.3961,0.0,6.7,11.0,7.6,'11111222,11111222,11111222' 
TCOON,ioos:station:TCOON:057:1,2019-01-01T17:36:00Z,28.4460,-96.3961,0.0,6.8,18.0,7.6,'11111222,11111222,11111222' 
TCOON,ioos:station:TCOON:057:1,2019-01-01T17:42:00Z,28.4460,-96.3961,0.0,6.0,11.0,7.0,'11111222,11111222,11111222' 
TCOON,ioos:station:TCOON:057:1,2019-01-01T17:48:00Z,28.4460,-96.3961,0.0,5.6,14.0,7.0,'11111222,11111222,11111222' 
TCOON,ioos:station:TCOON:057:1,2019-01-01T17:54:00Z,28.4460,-96.3961,0.0,5.8,8.0,6.5,'11111222,11111222,11111222' 
TCOON,ioos:station:TCOON:057:1,2019-01-01T18:00:00Z,28.4460,-96.3961,0.0,6.2,12.0,6.8,'11111222,11111222,11111222' 
TCOON,ioos:station:TCOON:057:1,2019-01-01T18:06:00Z,28.4460,-96.3961,0.0,5.9,14.0,6.7,'11111222,11111222,11111222' 
TCOON,ioos:station:TCOON:057:1,2019-01-01T18:12:00Z,28.4460,-96.3961,0.0,5.5,25.0,7.0,'11111222,11111222,11111222' 
TCOON,ioos:station:TCOON:057:1,2019-01-01T18:18:00Z,28.4460,-96.3961,0.0,5.3,24.0,6.1,'11111222,11111222,11111222' 
TCOON,ioos:station:TCOON:057:1,2019-01-01T18:24:00Z,28.4460,-96.3961,0.0,5.0,16.0,6.2,'11111222,11111222,11111222' 
TCOON,ioos:station:TCOON:057:1,2019-01-01T18:30:00Z,28.4460,-96.3961,0.0,5.7,13.0,6.4,'11111222,11111222,11111222' 
TCOON,ioos:station:TCOON:057:1,2019-01-01T18:36:00Z,28.4460,-96.3961,0.0,5.6,11.0,6.6,'11111222,11111222,11111222' 
TCOON,ioos:station:TCOON:057:1,2019-01-01T18:42:00Z,28.4460,-96.3961,0.0,5.0,2.0,5.8,'11111222,11111222,11111222' 
TCOON,ioos:station:TCOON:057:1,2019-01-01T18:48:00Z,28.4460,-96.3961,0.0,4.6,3.0,5.7,'11111222,11111222,11111222' 
TCOON,ioos:station:TCOON:057:1,2019-01-01T18:54:00Z,28.4460,-96.3961,0.0,3.6,348.0,5.1,'11111222,11111222,11111222' 
TCOON,ioos:station:TCOON:057:1,2019-01-01T19:00:00Z,28.4460,-96.3961,0.0,3.7,352.0,4.3,'11111222,11111222,11111222' 
TCOON,ioos:station:TCOON:057:1,2019-01-01T19:06:00Z,28.4460,-96.3961,0.0,3.6,355.0,4.2,'11111222,11111222,11111222' 
TCOON,ioos:station:TCOON:057:1,2019-01-01T19:12:00Z,28.4460,-96.3961,0.0,4.4,3.0,4.9,'11111222,11111222,11111222' 
TCOON,ioos:station:TCOON:057:1,2019-01-01T19:18:00Z,28.4460,-96.3961,0.0,5.3,6.0,5.9,'11111222,11111222,11111222' 
TCOON,ioos:station:TCOON:057:1,2019-01-01T19:24:00Z,28.4460,-96.3961,0.0,4.7,3.0,5.8,'11111222,11111222,11111222' 
TCOON,ioos:station:TCOON:057:1,2019-01-01T19:30:00Z,28.4460,-96.3961,0.0,3.8,10.0,4.9,'11111222,11111222,11111222' 
TCOON,ioos:station:TCOON:057:1,2019-01-01T19:36:00Z,28.4460,-96.3961,0.0,4.3,7.0,4.9,'11111222,11111222,11111222' 
TCOON,ioos:station:TCOON:057:1,2019-01-01T19:42:00Z,28.4460,-96.3961,0.0,4.0,6.0,4.7,'11111222,11111222,11111222' 
TCOON,ioos:station:TCOON:057:1,2019-01-01T19:48:00Z,28.4460,-96.3961,0.0,4.1,16.0,4.5,'11111222,11111222,11111222' 
TCOON,ioos:station:TCOON:057:1,2019-01-01T19:54:00Z,28.4460,-96.3961,0.0,3.9,19.0,4.4,'11111222,11111222,11111222' 
TCOON,ioos:station:TCOON:057:1,2019-01-01T20:00:00Z,28.4460,-96.3961,0.0,3.7,15.0,4.1,'11111222,11111222,11111222' 
TCOON,ioos:station:TCOON:057:1,2019-01-01T20:06:00Z,28.4460,-96.3961,0.0,4.6,18.0,4.8,'11111222,11111222,11111222' 
TCOON,ioos:station:TCOON:057:1,2019-01-01T20:12:00Z,28.4460,-96.3961,0.0,4.9,19.0,5.2,'11111222,11111222,11111222' 
TCOON,ioos:station:TCOON:057:1,2019-01-01T20:18:00Z,28.4460,-96.3961,0.0,5.1,17.0,5.5,'11111222,11111222,11111222' 
TCOON,ioos:station:TCOON:057:1,2019-01-01T20:24:00Z,28.4460,-96.3961,0.0,5.9,15.0,6.8,'11111222,11111222,11111222' 